Skip Page Navigation
NASA JPL Caltech
NASA Logo - Jet Propulsion Laboratory + View the NASA Portal
+ Center for Near-Earth Object Studies
JPL Home Earth Solar System Stars & Galaxies Technology
JPL Solar System Dynamics
BODIES ORBITS EPHEMERIDES TOOLS PHYSICAL DATA DISCOVERY FAQ SITE MAP
JPL Small-Body Database Browser
Search: [ help ]  
266026 (2006 FA48)
Classification: Outer Main-belt Asteroid          SPK-ID: 2266026
Ephemeris | Orbit Diagram | Orbital Elements | Mission Design | Physical Parameters | Discovery Circumstances | Close-Approach Data ]

[ show orbit diagram ]
Orbital Elements at Epoch 2459000.5 (2020-May-31.0) TDB
Reference: JPL 13 (heliocentric ecliptic J2000)
 Element Value Uncertainty (1-sigma)   Units 
e .1223300779907543 5.789e-08  
a 3.224307752907059 4.6077e-08 au
q 2.829877934027745 1.8749e-07 au
i 6.183656817685476 6.7526e-06 deg
node 60.97362570096803 6.1957e-05 deg
peri 87.03702892956323 6.8821e-05 deg
M 177.6371022606542 2.8991e-05 deg
tp 2457957.019500373618
(2017-Jul-22.51950037)
0.00016662 TDB
period 2114.721390322426
5.79
4.5331e-05
1.241e-07
d
yr
n .1702351910977321 3.6491e-09 deg/d
Q 3.618737571786373 5.1714e-08 au
  Orbit Determination Parameters
   # obs. used (total)      267  
   data-arc span      8389 days (22.97 yr)  
   first obs. used      1995-05-31  
   last obs. used      2018-05-19  
   planetary ephem.      DE431  
   SB-pert. ephem.      SB431-N16  
   condition code      0  
   norm. resid. RMS      .60823  
   source      ORB  
   producer      Otto Matic  
   solution date      2018-May-31 16:59:46  

Additional Information
 Earth MOID = 1.85023 au 
 Jupiter MOID = 1.42897 au 
 T_jup = 3.167 
[ show covariance matrix ]

Ephemeris | Orbit Diagram | Orbital Elements | Mission Design | Physical Parameters | Discovery Circumstances | Close-Approach Data ]

Physical Parameter Table
Parameter Symbol Value Units Sigma Reference Notes
absolute magnitude H 15.3   n/a MPO450145  

266026 (2006 FA48)          Discovered 2006-Mar-24 by LONEOS at Anderson Mesa
Reference: 20110218/Numbers.arcLast Updated: 2011-02-22

[ hide close-approach data ]
Close-Approach Data   ...sorted by Date/Time (TDB)
Date/Time (TDB) Time Uncertainty
(days_HH:MM)
Body Nominal Distance (au) Minimum Distance (au) Maximum Distance (au) V-relative (km/s) V-infinity (km/s) JD (TDB) Time Uncertainty (minutes) Semi-major axis (km) Semi-minor axis (km) range-LOV angle (deg) N-sigma BP Orbit Ref. Reference Modified
1903-Dec-14 08:19 00:19 Jupiter 1.71270492647374 1.71269924268174 1.71271061035668 2.64392085982848 2.44973723045013 2416462.846554906 18.7835824059589 749.156283051104 23.5634828295146 85.3688067085972 951649.228746341 T 13 CATAB v2.0e-lin.ifort 2018-May-31 16:59:50 2018-Dec-17 23:47
1915-May-19 19:34 00:15 Jupiter 1.63130764017792 1.63130462220747 1.63131065823358 2.14792053433882 1.89079461528588 2420637.315592492 14.96402558832 721.518109683443 28.2168600439871 -80.5191034490187 1079772.82632929 T 13 CATAB v2.0e-lin.ifort 2018-May-31 16:59:50 2018-Dec-17 23:47
1926-Nov-22 23:12 00:11 Jupiter 1.58781256616934 1.58781143310281 1.58781369929119 1.87733650298837 1.56763753145569 2424842.466955266 11.3989750033573 667.660749073741 50.5254701910496 -79.2953146809698 1400319.6172775 T 13 CATAB v2.0e-lin.ifort 2018-May-31 16:59:50 2018-Dec-17 23:47
1938-Jun-23 23:57 00:09 Jupiter 1.56972815969539 1.56972748927754 1.56972883011664 1.76502247257505 1.4269225259714 2429073.497892905 8.51825507890799 560.138546400258 52.947090534521 -88.7921975215095 1761560.82139907 T 13 CATAB v2.0e-lin.ifort 2018-May-31 16:59:50 2018-Dec-17 23:47
1950-Feb-04 14:15 00:06 Jupiter 1.56848923894233 1.56848826564884 1.56849021225027 1.74519602947106 1.40202008199979 2433317.093746518 6.34406001334183 424.829967459834 44.0927431568484 79.9995297039682 1871376.40851593 T 13 CATAB v2.0e-lin.ifort 2018-May-31 16:59:50 2018-Dec-17 23:47
1961-Sep-18 01:07 00:05 Jupiter 1.58931659032008 1.58931544306666 1.58931773757838 1.81280527044101 1.49008982326337 2437560.546819839 4.71686794356229 283.282580944337 31.2435576215848 73.3363657357439 1671108.4396735 T 13 CATAB v2.0e-lin.ifort 2018-May-31 16:59:50 2018-Dec-17 23:47
1973-Apr-19 06:49 00:03 Jupiter 1.63477176844998 1.63477059450637 1.63477294239359 1.97972632945321 1.69795716021085 2441791.784299465 3.46185434177077 169.926089111778 19.1180150157834 75.1919405219258 1367531.75043987 T 13 CATAB v2.0e-lin.ifort 2018-May-31 16:59:50 2018-Dec-17 23:47
1984-Oct-27 23:02 00:02 Jupiter 1.71380864983401 1.71380757263059 1.71380972703664 2.27656663911434 2.04799600801117 2446001.459537428 2.41763811122647 107.278645125924 17.2572140482214 83.3884263003067 1262126.04031448 T 13 CATAB v2.0e-lin.ifort 2018-May-31 16:59:50 2018-Dec-17 23:47
1996-Apr-14 02:57 00:02 Jupiter 1.82057040695797 1.82056950171297 1.82057131220255 2.69438744901775 2.51579438371561 2450187.623186026 1.49928480578185 82.3500284937565 25.3056217808364 84.5536421083592 1505056.15202907 T 13 CATAB v2.0e-lin.ifort 2018-May-31 16:59:50 2018-Dec-17 23:47
2007-Sep-06 17:13 < 00:01 Jupiter 1.95560143194364 1.9556006430724 1.95560222081488 3.23597488850623 3.09923874094601 2454350.217337054 0.7077484807148 71.6001169100707 28.2140922402563 81.1583865967301 1971851.96441431 T 13 CATAB v2.0e-lin.ifort 2018-May-31 16:59:50 2018-Dec-17 23:47
2142-Dec-02 17:09 00:06 Jupiter 1.92653054952974 1.92652701481312 1.92653408424669 3.84779102300424 3.73177859822452 2503745.214337010 5.63274541867382 184.462036442167 49.5105821266296 -35.9308472159019 903891.046987218 T 13 CATAB v2.0e-lin.ifort 2018-May-31 16:59:50 2018-Dec-17 23:47
2154-Mar-26 16:43 00:06 Jupiter 1.75279962781887 1.75279649113954 1.75280276449631 3.13191119150828 2.97361533169785 2507877.196487315 5.65814973500771 143.485954919457 67.5927116789996 -44.4467026222775 561371.067281416 T 13 CATAB v2.0e-lin.ifort 2018-May-31 16:59:50 2018-Dec-17 23:47
2165-Aug-18 19:52 00:06 Jupiter 1.62675383651663 1.62675148870221 1.62675618432753 2.58769102737923 2.37797803435869 2512040.327923448 5.56697450621591 134.990149623032 47.7437794470795 -84.3091363620392 518550.799941825 T 13 CATAB v2.0e-lin.ifort 2018-May-31 16:59:50 2018-Dec-17 23:47
2177-Feb-17 11:07 00:06 Jupiter 1.55127342213331 1.55127186893665 1.55127497532953 2.22926570171318 1.96915983750503 2516240.963186019 5.65698021897056 216.846758670685 23.775268338166 -79.3872196149004 765700.059194451 T 13 CATAB v2.0e-lin.ifort 2018-May-31 16:59:50 2018-Dec-17 23:47
2188-Sep-19 06:29 00:06 Jupiter 1.51082706768337 1.51082615684793 1.51082797852412 2.00491246280161 1.70246997223862 2520472.769835694 6.25668306667572 343.356777250921 46.7164640587839 -72.1916094071429 1111965.66083102 T 13 CATAB v2.0e-lin.ifort 2018-May-31 16:59:50 2018-Dec-17 23:47
2200-May-12 07:52 00:08 Jupiter 1.50115302956105 1.50115246889644 1.50115359022712 1.88452186481683 1.55657533193167 2524724.827485839 7.60084939218134 517.531714664201 57.8723531912782 -71.159902328877 1433853.43328087 T 13 CATAB v2.0e-lin.ifort 2018-May-31 16:59:50 2018-Dec-17 23:47

Alternate Designations
 2006 FA48 = 1998 YH31 = 2004 XO166 
Ephemeris | Orbit Diagram | Orbital Elements | Mission Design | Physical Parameters | Discovery Circumstances | Close-Approach Data ]
ABOUT SSD CREDITS/AWARDS PRIVACY/COPYRIGHT GLOSSARY LINKS
FirstGov 2020-Oct-01 17:36 UT
(server date/time)  
NASA Home Page
Site Manager:   Ryan S. Park
Webmaster  Alan B. Chamberlin